Weather History for Belize, Belize

Change the Weather History Date:

Thursday, November 29, 2012

  Actual Average Record
Temperature  
Mean Temperature 75 °F -  
Max Temperature 79 °F 82 °F 87 °F (1997)
Min Temperature 71 °F 69 °F 60 °F (2011)
Cooling Degree Days 10    
Growing Degree Days 25 (Base 50)    
Moisture  
Dew Point 72 °F    
Average Humidity 90    
Maximum Humidity 100    
Minimum Humidity 74    
Precipitation  
Precipitation 0.71 in 0.23 in - ()
Sea Level Pressure  
Sea Level Pressure 30.07 in    
Wind  
Wind Speed 6 mph ()    
Max Wind Speed 13 mph    
Max Gust Speed -    
Visibility 6.9 miles    
Events Rain    
Averages and records for this station are not official NWS values.
T = Trace of Precipitation, MM = Missing Value Source: Averaged Metar Reports

Daily Weather History Graph

Daily Weather History Graph

Search for Another Location

Airport:

Trip Planner

Search our weather history database for the weather conditions in past years. The results will help you decide how hot, cold, wet, or windy it might be!

Date:

Astronomy

Nov. 29, 2012 Rise Set
Actual Time 6:06 AM CST 5:16 PM CST
Civil Twilight 5:43 AM CST 5:40 PM CST
Nautical Twilight 5:16 AM CST 6:06 PM CST
Astronomical Twilight 4:50 AM CST 6:33 PM CST
Moon 6:20 PM CST (11/29) 6:52 AM CST (11/29)
Length of Visible Light 11h 56m
Length of Day
11h 10m
Full, 99% of the Moon is Illuminated
Nov 29
Full
Dec 6
Last Quarter
Dec 13
New
Dec 19
First Quarter
Dec 28
Full

Hourly Weather History & Observations

Time (CST) Temp. Heat Index Dew Point Humidity Pressure Visibility Wind Dir Wind Speed Gust Speed Precip Events Conditions
12:00 AM 73 °F - 72 °F 98% 30.12 in 3 mi North 9.2 mph - - Rain Rain
3:00 AM 72 °F - 72 °F 99% 30.08 in 9 mi NW 5.8 mph - - Rain Light Rain
5:00 AM 69.8 °F - 69.8 °F 100% 30.06 in 6.2 mi West 4.6 mph - N/A   Mostly Cloudy
6:00 AM 72 °F - 71 °F 96% 30.08 in 12 mi NW 4.6 mph - -   Partly Cloudy
6:00 AM 71.6 °F - 71.6 °F 100% 30.06 in 6.2 mi NW 4.6 mph - N/A   Mostly Cloudy
7:00 AM 71.6 °F - 71.6 °F 100% 30.09 in 5.0 mi NW 5.8 mph - N/A   Mostly Cloudy
8:00 AM 71.6 °F - 71.6 °F 100% 30.09 in 6.2 mi WNW 6.9 mph - N/A   Mostly Cloudy
9:00 AM 72 °F - 71 °F 95% 30.12 in 11 mi WNW 5.8 mph - - Rain Light Rain Showers
9:00 AM 73.4 °F - 71.6 °F 94% 30.12 in 6.2 mi WNW 5.8 mph - N/A   Mostly Cloudy
10:00 AM 75.2 °F - 71.6 °F 89% 30.11 in 6.2 mi WNW 5.8 mph - N/A   Mostly Cloudy
11:00 AM 75.2 °F - 71.6 °F 89% 30.10 in 6.2 mi WNW 9.2 mph - N/A   Mostly Cloudy
12:00 PM 77 °F - 72 °F 81% 30.09 in 11 mi NNW 9.2 mph - - Rain Light Rain Showers
12:00 PM 77.0 °F - 71.6 °F 83% 30.08 in 6.2 mi NNW 9.2 mph - N/A Rain Light Rain Showers
1:00 PM 77.0 °F - 73.4 °F 89% 30.05 in 6.2 mi NNW 8.1 mph - N/A Rain Light Rain Showers
2:00 PM 80.6 °F 84.6 °F 71.6 °F 74% 30.02 in 6.2 mi North 9.2 mph - N/A   Mostly Cloudy
3:00 PM 79 °F - 72 °F 75% 30.01 in 12 mi North 9.2 mph - -   Partly Cloudy
3:00 PM 78.8 °F - 73.4 °F 83% 30.01 in 6.2 mi North 9.2 mph - N/A   Mostly Cloudy
4:00 PM 78.8 °F - 71.6 °F 78% 30.01 in 6.2 mi North 6.9 mph - N/A   Mostly Cloudy
5:00 PM 77.0 °F - 71.6 °F 83% 30.02 in 6.2 mi North 6.9 mph - N/A   Mostly Cloudy
6:00 PM 75 °F - 70 °F 81% 30.06 in 5 mi ENE 11.5 mph - - Rain Light Rain Showers
9:00 PM 72 °F - 71 °F 96% 30.10 in 3 mi NNE 12.7 mph - - Rain Rain